Regional Weather Roundup
Issued by NWS

Home | Current Version | Previous Version | Graphics & Text | Print | Product List | Glossary On
Versions: 1 2 3 4 5 6 7 8 9 10 11 12 13 14 15 16 17 18 19 20 21 22 23 24 25 26 27 28 29 30 31 32 33 34 35 36 37 38 39 40 41 42 43 44 45 46 47 48 49 50
000
ASUS43 KFSD 191202
RWRSD

WEATHER ROUNDUP FOR SOUTH DAKOTA
NATIONAL WEATHER SERVICE SIOUX FALLS SD
600 AM CST FRI JAN 19 2018

NOTE: "FAIR" INDICATES FEW OR NO CLOUDS BELOW 12,000 FEET WITH NO
SIGNIFICANT WEATHER AND/OR OBSTRUCTIONS TO VISIBILITY.


SDZ001>005-009-010-012>017-191300-
NORTHWEST AND NORTH CENTRAL SOUTH DAKOTA

CITY           SKY/WX    TMP DP  RH WIND       PRES   REMARKS
BUFFALO          N/A     37  28  70 NW7       29.49F
FAITH            N/A     29  25  85 S6        29.53R WCI  23
MOBRIDGE       CLOUDY    24  21  88 CALM      29.50F
$$

SDZ012>016-024>037-041>051-057-063-072>074-191300-
SOUTHWEST AND SOUTH CENTRAL SOUTH DAKOTA

CITY           SKY/WX    TMP DP  RH WIND       PRES   REMARKS
RAPID CTY ARPT MOCLDY    43  26  51 W7        29.55F
PIERRE         CLOUDY    27  25  92 W5        29.53F WCI  22
CUSTER         MOCLDY    46  18  32 W18G32    29.65F
ELLSWORTH AFB  MOCLDY    40  28  61 W12       29.54F
PHILIP         CLOUDY    28  26  92 CALM      29.55F
PINE RIDGE     CLOUDY    42  29  59 SW9       29.63F
SPEARFISH        N/A     55  25  30 SW35G47   29.50F
WINNER         FAIR      45  32  60 SW12      29.57F
$$

SDZ004>011-016>023-039-040-191300-
NORTHEAST SOUTH DAKOTA

CITY           SKY/WX    TMP DP  RH WIND       PRES   REMARKS
ABERDEEN       PTCLDY    23  21  92 SW7       29.54F WCI  15
WATERTOWN      CLOUDY    26  24  92 S9        29.54F WCI  17
BROOKINGS      CLOUDY    29  25  85 S8        29.57F WCI  21
SISSETON         N/A     36  26  67 SE9       29.50F
$$

SDZ017-020-022-023-036>040-048>070-191300-
SOUTHEAST SOUTH DAKOTA

CITY           SKY/WX    TMP DP  RH WIND       PRES   REMARKS
SIOUX FALLS    CLOUDY    28  26  92 MISG      29.62F
HURON          PTCLDY    29  27  92 S9        29.53F WCI  20
CHAMBERLAIN    CLOUDY    33  31  92 CALM      29.56F
MITCHELL       CLOUDY    28  26  92 S8        29.58F WCI  20
YANKTON        CLOUDY    29  25  85 CALM      29.62F
$$

ABBREVIATIONS USED IN REMARKS
   TC - TEMPERATURE IN CELSIUS
  WCI - WIND CHILL INDEX
   HX - HEAT INDEX
  VSB - VISIBILITY





USA.gov is the U.S. government's official web portal to all federal, state and local government web resources and services.